Location: Pebble Beach Sunset Acres
(33.0837°N, 96.4508°W)
Time: 16:55:48
(UTC+00:00)

DELTA 2 R/B (1) - Pass Details

Date: 30 June 2022
Orbit: 790 x 802 km, 39.6° (Epoch: 18 August)

Event Time Altitude Azimuth Distance (km) Brightness Sun altitude
Rises 02:03:30 0° 291° (WNW) 3,292 8.9 -5.3°
Reaches altitude 10° 02:06:03 10° 296° (WNW) 2,364 7.9 -5.8°
Maximum altitude 02:11:29 51° 12° (NNE) 996 4.3 -6.7°
Drops below altitude 10° 02:16:55 10° 89° (E) 2,368 5.6 -7.7°
Enters shadow 02:18:15 - 92° (E) 2,848 5.9 -7.9°
